When you browse on this site, cookies collect data to enhance your experience and personalize the content and advertising you see.
Visit our Privacy Policy to learn more. By continuing to use the site, you agree to this use of cookies and data.
  • In Germany
  • List of Countries
  • For 7 days
  • Water Temperature
  • Satellite Maps
  • Weather Map
  • Weather Widgets
  • user-avatar
    Login

    Hourly Weather Zimari

    Today, 18 January, Friday

    Time Temperature Precipitation Wind Pressure Humidity
    00:00 -4°C° 0 mm 4 mps 736 mmHg 84%
    01:00 -4°C° 0 mm 4 mps 737 mmHg 84%
    02:00 -5°C° 0 mm 3 mps 738 mmHg 85%
    03:00 -6°C° 0 mm 3 mps 739 mmHg 86%
    04:00 -7°C° 0 mm 3 mps 739 mmHg 88%
    05:00 -7°C° 0 mm 3 mps 740 mmHg 89%
    06:00 -7°C° 0 mm 2 mps 740 mmHg 90%
    07:00 -9°C° 0 mm 2 mps 741 mmHg 92%
    08:00 -10°C° 0 mm 1 mps 741 mmHg 94%
    09:00 -9°C° 0 mm 1 mps 742 mmHg 93%
    10:00 -9°C° 0 mm 1 mps 742 mmHg 91%
    11:00 -8°C° 0 mm 1 mps 742 mmHg 90%
    12:00 -8°C° 0 mm 1 mps 742 mmHg 89%
    13:00 -7°C° 0 mm 1 mps 743 mmHg 88%
    14:00 -6°C° 0 mm 1 mps 743 mmHg 87%
    15:00 -8°C° 0 mm 2 mps 743 mmHg 89%
    16:00 -9°C° 0 mm 2 mps 744 mmHg 90%
    17:00 -9°C° 0 mm 2 mps 744 mmHg 91%
    18:00 -10°C° 0 mm 3 mps 744 mmHg 91%
    19:00 -10°C° 0 mm 3 mps 744 mmHg 91%
    20:00 -9°C° 0 mm 3 mps 744 mmHg 91%
    21:00 -9°C° 0 mm 3 mps 745 mmHg 91%
    22:00 -10°C° 0 mm 4 mps 745 mmHg 92%
    23:00 -10°C° 0 mm 4 mps 745 mmHg 92%

    Tomorrow, 19 January, Saturday

    Time Temperature Precipitation Wind Pressure Humidity
    00:00 -9°C° 0.1 mm 4 mps 745 mmHg 91%
    01:00 -9°C° 0.1 mm 4 mps 746 mmHg 91%
    02:00 -8°C° 0.1 mm 4 mps 746 mmHg 91%
    03:00 -7°C° 0.1 mm 3 mps 747 mmHg 91%
    04:00 -7°C° 0.1 mm 3 mps 747 mmHg 92%
    05:00 -6°C° 0.1 mm 2 mps 747 mmHg 93%
    06:00 -7°C° 0.1 mm 2 mps 748 mmHg 94%
    07:00 -7°C° 0.1 mm 2 mps 748 mmHg 95%
    08:00 -7°C° 0.1 mm 1 mps 748 mmHg 96%
    09:00 -7°C° 0.1 mm 2 mps 749 mmHg 95%
    10:00 -6°C° 0.1 mm 2 mps 749 mmHg 94%
    11:00 -5°C° 0.1 mm 2 mps 750 mmHg 93%
    12:00 -6°C° 0 mm 3 mps 750 mmHg 91%
    13:00 -5°C° 0 mm 3 mps 750 mmHg 89%
    14:00 -4°C° 0 mm 3 mps 750 mmHg 87%
    15:00 -5°C° 0 mm 3 mps 751 mmHg 88%
    16:00 -6°C° 0 mm 3 mps 751 mmHg 88%
    17:00 -7°C° 0 mm 3 mps 751 mmHg 89%
    18:00 -7°C° 0 mm 3 mps 751 mmHg 89%
    19:00 -8°C° 0 mm 4 mps 751 mmHg 90%
    20:00 -8°C° 0 mm 4 mps 751 mmHg 90%
    21:00 -8°C° 0 mm 4 mps 750 mmHg 88%
    22:00 -8°C° 0 mm 5 mps 750 mmHg 87%
    23:00 -9°C° 0 mm 6 mps 749 mmHg 85%

    Day after tomorrow, 20 January, Sunday

    Time Temperature Precipitation Wind Pressure Humidity
    00:00 -8°C° 0.1 mm 6 mps 749 mmHg 85%
    01:00 -6°C° 0.1 mm 6 mps 749 mmHg 86%
    02:00 -5°C° 0.1 mm 6 mps 748 mmHg 86%
    03:00 -5°C° 0.9 mm 6 mps 748 mmHg 89%
    04:00 -4°C° 0.9 mm 6 mps 747 mmHg 91%
    05:00 -4°C° 0.9 mm 5 mps 747 mmHg 93%
    06:00 -5°C° 0.4 mm 5 mps 747 mmHg 89%
    07:00 -6°C° 0.4 mm 5 mps 747 mmHg 86%
    08:00 -7°C° 0.4 mm 4 mps 747 mmHg 82%
    09:00 -7°C° 0 mm 4 mps 748 mmHg 84%
    10:00 -8°C° 0 mm 4 mps 748 mmHg 85%
    11:00 -8°C° 0 mm 4 mps 749 mmHg 86%
    12:00 -8°C° 0 mm 4 mps 749 mmHg 86%
    13:00 -9°C° 0 mm 4 mps 750 mmHg 85%
    14:00 -9°C° 0 mm 4 mps 750 mmHg 85%
    15:00 -9°C° 0 mm 3 mps 750 mmHg 86%
    16:00 -9°C° 0 mm 3 mps 750 mmHg 88%
    17:00 -9°C° 0 mm 2 mps 751 mmHg 89%
    18:00 -10°C° 0 mm 2 mps 751 mmHg 91%
    19:00 -12°C° 0 mm 2 mps 751 mmHg 92%
    20:00 -13°C° 0 mm 2 mps 751 mmHg 93%
    21:00 -12°C° 0 mm 2 mps 751 mmHg 93%
    22:00 -12°C° 0 mm 2 mps 752 mmHg 93%
    23:00 -10°C° 0 mm 2 mps 752 mmHg 93%

    21 January, Monday

    Time Temperature Precipitation Wind Pressure Humidity
    00:00 -10°C° 0 mm 2 mps 752 mmHg 94%
    01:00 -12°C° 0 mm 2 mps 752 mmHg 94%
    02:00 -12°C° 0 mm 2 mps 752 mmHg 95%
    03:00 -13°C° 0 mm 2 mps 752 mmHg 95%
    04:00 -15°C° 0 mm 3 mps 753 mmHg 95%
    05:00 -15°C° 0 mm 3 mps 753 mmHg 94%
    06:00 -16°C° 0 mm 3 mps 753 mmHg 94%
    07:00 -16°C° 0 mm 3 mps 753 mmHg 94%
    08:00 -16°C° 0 mm 3 mps 754 mmHg 94%
    09:00 -16°C° 0 mm 3 mps 754 mmHg 94%
    10:00 -15°C° 0 mm 3 mps 755 mmHg 93%
    11:00 -14°C° 0 mm 3 mps 755 mmHg 92%
    12:00 -13°C° 0 mm 2 mps 755 mmHg 92%
    13:00 -12°C° 0 mm 2 mps 755 mmHg 91%
    14:00 -10°C° 0 mm 2 mps 755 mmHg 91%
    15:00 -10°C° 0.1 mm 2 mps 755 mmHg 92%
    16:00 -9°C° 0.1 mm 1 mps 755 mmHg 94%
    17:00 -9°C° 0.1 mm 1 mps 755 mmHg 95%
    18:00 -9°C° 0.1 mm 1 mps 755 mmHg 95%
    19:00 -8°C° 0.1 mm 1 mps 755 mmHg 96%
    20:00 -8°C° 0.1 mm 1 mps 755 mmHg 96%
    21:00 -9°C° 0 mm 1 mps 755 mmHg 96%
    22:00 -9°C° 0 mm 1 mps 755 mmHg 96%
    23:00 -10°C° 0 mm 1 mps 755 mmHg 96%

    22 January, Tuesday

    Time Temperature Precipitation Wind Pressure Humidity
    00:00 -10°C° 0 mm 1 mps 755 mmHg 97%
    01:00 -10°C° 0 mm 1 mps 755 mmHg 97%
    02:00 -11°C° 0 mm 1 mps 755 mmHg 97%
    03:00 -11°C° 0 mm 1 mps 755 mmHg 97%
    04:00 -11°C° 0 mm 1 mps 755 mmHg 97%
    05:00 -12°C° 0 mm 0 mps 755 mmHg 98%
    06:00 -12°C° 0 mm 0 mps 755 mmHg 98%
    07:00 -12°C° 0 mm 1 mps 755 mmHg 97%
    08:00 -12°C° 0 mm 1 mps 755 mmHg 97%
    09:00 -11°C° 0 mm 1 mps 754 mmHg 97%
    10:00 -10°C° 0 mm 1 mps 754 mmHg 96%
    11:00 -10°C° 0 mm 1 mps 754 mmHg 95%
    12:00 -10°C° 0 mm 2 mps 754 mmHg 94%
    13:00 -10°C° 0 mm 2 mps 754 mmHg 94%
    14:00 -9°C° 0 mm 2 mps 753 mmHg 93%
    15:00 -9°C° 0 mm 2 mps 753 mmHg 93%
    16:00 -9°C° 0 mm 2 mps 753 mmHg 94%
    17:00 -9°C° 0 mm 2 mps 753 mmHg 95%
    18:00 -9°C° 0 mm 2 mps 753 mmHg 95%
    19:00 -10°C° 0 mm 3 mps 752 mmHg 95%
    20:00 -10°C° 0 mm 3 mps 752 mmHg 95%
    21:00 -10°C° 0 mm 3 mps 752 mmHg 96%
    22:00 -10°C° 0 mm 3 mps 752 mmHg 96%
    23:00 -9°C° 0 mm 3 mps 751 mmHg 96%

    23 January, Wednesday

    Time Temperature Precipitation Wind Pressure Humidity
    00:00 -9°C° 0 mm 3 mps 751 mmHg 95%
    01:00 -8°C° 0 mm 3 mps 751 mmHg 95%
    02:00 -7°C° 0 mm 3 mps 751 mmHg 95%
    03:00 -7°C° 0 mm 3 mps 750 mmHg 94%
    04:00 -7°C° 0 mm 3 mps 750 mmHg 93%
    05:00 -7°C° 0 mm 3 mps 750 mmHg 93%
    06:00 -8°C° 0 mm 4 mps 750 mmHg 91%
    07:00 -8°C° 0 mm 4 mps 750 mmHg 90%
    08:00 -8°C° 0 mm 4 mps 750 mmHg 89%
    09:00 -8°C° 0 mm 4 mps 750 mmHg 89%
    10:00 -8°C° 0 mm 4 mps 750 mmHg 89%
    11:00 -9°C° 0 mm 4 mps 750 mmHg 89%
    12:00 -9°C° 0 mm 4 mps 750 mmHg 87%
    13:00 -9°C° 0 mm 4 mps 750 mmHg 86%
    14:00 -9°C° 0 mm 4 mps 750 mmHg 85%
    15:00 -10°C° 0 mm 4 mps 750 mmHg 86%
    16:00 -10°C° 0 mm 3 mps 750 mmHg 88%
    17:00 -12°C° 0 mm 3 mps 750 mmHg 89%
    18:00 -12°C° 0 mm 3 mps 750 mmHg 90%
    19:00 -13°C° 0 mm 3 mps 750 mmHg 91%
    20:00 -15°C° 0 mm 4 mps 750 mmHg 92%
    21:00 -13°C° 0 mm 3 mps 750 mmHg 92%
    22:00 -12°C° 0 mm 3 mps 750 mmHg 92%
    23:00 -9°C° 0 mm 2 mps 751 mmHg 92%
    Show more